Regional Weather Roundup
Issued by NWS Wakefield, VA

Home | Current Version | Previous Version | Graphics & Text | Print | Product List | Glossary On
Versions: 1 2 3 4 5 6 7 8 9 10 11 12 13 14 15 16 17 18 19 20 21 22 23 24 25 26 27 28 29 30 31 32 33 34 35 36 37 38 39 40 41 42 43 44 45 46 47 48 49 50
000
ASUS41 KAKQ 212215
RWRAKQ

REGIONAL WEATHER ROUNDUP
NATIONAL WEATHER SERVICE WAKEFIELD VA
600 PM EDT SUN MAY 21 2017

Note: "fair" indicates few or no clouds below 12,000 feet with no
significant weather and/or obstructions to visibility. * = Denotes
station may not report precipitation (e.g., rain,snow,etc.),
thunder or fog.

VAZ042-051-052>054-056-212300-
NORTHERN VIRGINIA

CITY           SKY/WX    TMP DP  RH WIND       PRES   REMARKS
WASH NATIONAL  CLOUDY    68  51  54 SE10      30.21F
DULLES         CLOUDY    64  49  57 SE8       30.20F
FORT BELVOIR   NOT AVBL
QUANTICO       CLOUDY    67  54  63 SE12      30.21F
FREDERICKSBRG* MOSUNNY   68  55  62 E9        30.20S
STAFFORD*      CLOUDY    65  51  60 E6        30.25S
WARRENTON      CLOUDY    67  51  56 SE7       30.20F
CULPEPER*      CLOUDY    67  54  63 E3        30.21F
MANASSAS*        N/A     65  51  60 SE5       30.21F
LEESBURG*      CLOUDY    68  52  56 S8        30.21F
WINCHESTER     CLOUDY    63  52  67 SE10      30.18F
FRONT ROYAL*   CLOUDY    64  54  68 S3        30.16F
LURAY*         CLOUDY    66  55  68 S5        30.17S
$$

VAZ048-049-060>072-079>083-212300-
CENTRAL AND SOUTH CENTRAL VIRGINIA

CITY           SKY/WX    TMP DP  RH WIND       PRES   REMARKS
RICHMOND       PTSUNNY   69  57  65 SE9       30.19F
CHESTERFIELD*  CLOUDY   N/A N/A N/A SE10      30.20F
PETERSBURG*    CLOUDY    69  57  64 E9        30.19F
HANOVER        CLOUDY    69  54  58 E3        30.21F
TAPPAHANNOCK*  CLOUDY    68  39  35 E10       30.22F
QUINTON*       CLOUDY    68  57  68 E6        30.20F
CHARLOTTSVILLE CLOUDY    66  55  67 S5        30.20F
GORDONSVILLE*  CLOUDY    65  57  73 CALM      30.19F
ORANGE*        CLOUDY    64  54  68 CALM      30.20F
LOUISA*        CLOUDY    72  61  68 SE3       30.18F
BUMPASS*       CLOUDY    68  56  67 S3        30.20S
FARMVILLE*     CLOUDY    70  60  71 E3        30.18S
CREWE*         CLOUDY    68  59  71 MISG      30.19F
FORT PICKETT*  CLOUDY    69  59  70 E6        30.18F
CHASE CITY*    CLOUDY    67  63  87 E3        30.18F
CLARKSVILLE*   CLOUDY    68  63  83 NE7       30.17F
SOUTH HILL*    CLOUDY    69  62  78 NE3       30.23F
LAWRENCEVILLE* CLOUDY    69  59  71 CALM      30.18S
EMPORIA*       PTSUNNY   70  61  73 NE6       30.18F
$$

VAZ088>098-212300-
SOUTHEAST VIRGINIA

CITY           SKY/WX    TMP DP  RH WIND       PRES   REMARKS
NORFOLK        CLOUDY    63  54  72 NE12      30.21F
VIRGINIA BEACH CLOUDY    62  53  72 NE7       30.20F
NORFOLK NAVAL  NOT AVBL
WEST POINT*    PTSUNNY   66  52  60 SE9       30.23F
SALUDA*        CLOUDY    64  52  64 E7        30.22F
NEWPORT NEWS   CLOUDY    64  54  69 E10       30.22S
LANGLEY AFB    NOT AVBL
FORT EUSTIS    NOT AVBL
WILLIAMSBURG*  SUNNY     66  55  68 E7        30.22F
HR EXEC AP*    MOCLDY    66  55  68 NE7       30.19S
FRANKLIN*      CLOUDY    67  57  70 NE9       30.20R
US460-WAKEFLD  CLOUDY    66  58  75 VRB6      30.20F
$$

VAZ020-022-025-037-045-212300-
WEST CENTRAL AND SOUTHWEST VIRGINIA

CITY           SKY/WX    TMP DP  RH WIND       PRES   REMARKS
STAUNTON*      CLOUDY    64  55  72 SE6       30.21S
WAYNESBORO*    CLOUDY    61  56  82 SE10      30.21R
HOT SPRINGS VA DRZL/FOG  46  46 100 CALM      30.24S VSB<1/4
LYNCHBURG      CLOUDY    64  57  78 NE5       30.21S
DANVILLE       CLOUDY    64  61  90 E5        30.18F
SOUTH BOSTON*  CLOUDY    65  63  90 CALM      30.18S
MARTINSVILLE   CLOUDY    61  58  88 E5        30.21S
ROANOKE        LGT RAIN  62  59  90 SE5       30.21F
BLACKSBURG     RAIN      60  58  94 E6        30.22F
DUBLIN*        LGT RAIN  63  58  85 E7        30.19F
MARION*        HVY RAIN  64  61  91 CALM      30.21S
HILLSVILLE*    LGT RAIN  63  63 100 CALM      30.18S
RICHLANDS*     LGT RAIN  64  61  91 SE3       30.15F
WISE*          NOT AVBL
ABINGDON*      LGT RAIN  66  65  96 SE5       30.14F
$$

MDZ021>025-VAZ099-100-212300-
SOUTHERN MARYLAND AND THE DELMARVA PENINSULA

CITY           SKY/WX    TMP DP  RH WIND       PRES   REMARKS
PATUXENT RIVER CLOUDY    66  50  56 SE10      30.22F
BAY BRIDGE APT   N/A     66  48  52 SE10      30.23S
LEONARDTOWN    CLOUDY    64  46  52 SE9       30.23F
DOVER          NOT AVBL
GEORGETOWN     PTSUNNY   61  50  67 SE12      30.27F
EASTON         CLOUDY    66  48  52 SE7       30.27F
CAMBRIDGE      CLOUDY    66  48  52 E9        30.23F
SALISBURY      CLOUDY    63  49  60 E13       30.24F
OCEAN CITY     PTSUNNY   60  52  74 E10       30.25F
WALLOPS ISLAND CLOUDY    62  53  72 E12       30.25S
ACCOMACK*      CLOUDY    62   8  11 E10       30.23F
$$

NCZ012>017-030>032-212300-
NORTH CENTRAL AND EASTERN NORTH CAROLINA

CITY           SKY/WX    TMP DP  RH WIND       PRES   REMARKS
ROANOKE RAPIDS MOCLDY    72  63  73 NE5       30.17F
RALEIGH        PTSUNNY   74  65  73 E9        30.14F
ELIZABETH CITY CLOUDY    67  60  78 NE12      30.19F
AHOSKIE*         N/A     71  63  76 E3        30.17F
EDENTON*       CLOUDY    73  65  75 E7        30.17F
CURRITUCK*     CLOUDY    65  58  78 N8        30.20F
KILL DEVIL HLS NOT AVBL
MANTEO         CLOUDY    68  62  83 NE13      30.17F
CAPE HATTERAS  CLOUDY    74  68  81 VRB7      30.15S
TARBORO*       NOT AVBL
GOLDSBORO      SUNNY     78  69  73 NE10      30.11F
WASHINGTON     MOSUNNY   71  65  80 CALM      30.16F
GREENVILLE     PTSUNNY   72  64  78 E9        30.17F
NEW BERN       CLOUDY    75  67  76 NE9       30.15F
WILMINGTON     SUNNY     77  68  73 E10       30.12F
$$

VAZ048-212300-
ELSEWHERE

CITY           SKY/WX    TMP DP  RH WIND       PRES   REMARKS
HARRISBURG PA  CLOUDY    65  45  48 SE12      30.20F
BALTIMORE      CLOUDY    65  53  65 E10       30.22F
ANNAPOLIS      CLOUDY    67  53  61 SE13      30.22F
ANDREWS AFB    NOT AVBL
PHILADELPHIA   CLOUDY    67  40  37 SE9       30.25S
HENDERSON NC   CLOUDY    66  60  81 NE6       30.18S
GREENSBORO     LGT RAIN  65  63  93 NE8       30.15S
ROCKY MOUNT    MOSUNNY   73  64  73 NE9       30.15F
$$

VAZ100-212300-
MARINE

STATION/POSITION TIME  TEMP    WIND        PRES    WAVE   SWELL
                       AIR SEA DIR/SP/G            HT/PER HT/PER
                 (UTC) (F)     (DEG/KT/KT) (MB)    (FT/S) (FT/S)
CAPE MAY NJ      2148   58 64   90/ 12/ 20 1024.3F
LEWES DE         2148   57 64  110/ 13/ 16 1024.6F
15NM E FENWICK I 2150   58 57   80/ 12/ 14 1024.7F   5/ 7   3/ 7
OCEAN-CITY-INLET 2148   60 63  100/  8/ 12 1024.6F
WACHAPREAGUE VA  2148   61 68   70/ 13/ 15 1023.5S
THOMAS POINT MD  2200   65 67  120/ 11/ 12   N/A
GOOSES REEF MD   2150   67     130/  8/ 12 1024.0F
COVE POINT MD    2148   65     180/ 13/ 15 1023.9F
SOLOMONS ISLAND  2148   65 68  140/ 12/ 13   N/A
BISHOPS HEAD MD  2148   65 70  110/  9/ 12 1024.1F
PINEY POINT MD   2148          150/ 15/ 17   N/A
POTOMAC MD       2150   65     140/ 14/ 16 1022.7F
CAMBRIDGE MD     2142   67 71                N/A
LEWISETTA VA     2148   65 72  140/ 14/ 16 1023.0F
RAPPAHANNOCK LGT 2148           90/ 10/ 12 1024.1F
STINGRAY PT      2150   63     110/ 10/ 12 1023.4F
YORK RVR RNG VA  2148   63      80/ 12/ 15 1022.6F
YORKTOWN VA      2148   63 70   80/ 10/ 12 1022.9F
JAMESTOWN VA     2150   64      80/  8/ 12   N/A
DOMINION TERM VA 2148   64      30/  2/  5 1023.1F
KIPTOPEKE VA     2148      66   70/ 11/ 15   N/A
CHES BAY BRIDGE  2148   61 64   60/ 12/ 14 1022.8F
CAPE HENRY VA    2148   61      40/ 10/ 12   N/A
WILLOUBY STN VA  2148   62      80/ 11/ 13 1022.9F
S CRANEY ISL VA  2148   63      80/ 10/ 13 1022.7F
CAPE HENRY BUOY  2142      61                N/A     5/ 7
1ST LANDING BUOY 2150   62                 1023.1F
CAPE CHARLES BUO 2151      62                N/A     4/ 9
64NM E OF VA BCH 2150   70 69   90/ 14/ 16 1021.7F   8/ 7   5/ 7
DUCK PIER NC     2148   63 66  350/ 14/ 16 1021.3F
44100 DUCK FRF   2105      65                N/A     5/ 7   2/11
44056 DUCK FRF   2100      65                N/A     5/ 7   2/11
OREGON INLET NC  2148          360/  9/ 12 1021.1F
HATTERAS NC      2148   71 75   10/ 13/ 15 1020.6F
DIAMOND SHLS NC  2150   71 78  360/ 12/ 14 1020.1F   4/10   3/10
CAPE LOOKOUT NC  2200   73      60/  9/ 11 1020.3F
$$



USA.gov is the U.S. government's official web portal to all federal, state and local government web resources and services.